Printer-friendly version

IAU Minor Planet Center

Minor Planet Center

MPEC 2005-V40 : 2005 VO

The following Minor Planet Electronic Circular may be linked-to from your own Web pages, but must not otherwise be redistributed electronically.


Read MPEC 2005-V39 Read MPEC 2005-V41


M.P.E.C. 2005-V40                                Issued 2005 Nov. 4, 16:57 UT

     The Minor Planet Electronic Circulars contain information on unusual
         minor planets and routine data on comets.  They are published
   on behalf of Commission 20 of the International Astronomical Union by the
          Minor Planet Center, Smithsonian Astrophysical Observatory,
                          Cambridge, MA 02138, U.S.A.

                  Supported in part by the Brinson Foundation
                  Supported in part by the TABASGO Foundation
             Prepared using the Tamkin Foundation Computer Network

                              MPC@CFA.HARVARD.EDU
          URL http://cfa-www.harvard.edu/iau/mpc.html  ISSN 1523-6714

                                    2005 VO

Observations:
     K05V00O* C2005 11 03.18385 00 45 00.39 -01 03 02.9          20.8 V EV040G96
     K05V00O  C2005 11 03.18548 00 44 58.88 -01 03 26.1          20.7 V EV040G96
     K05V00O  C2005 11 03.18706 00 44 57.40 -01 03 49.5          20.9 V EV040G96
     K05V00O  C2005 11 03.18863 00 44 55.86 -01 04 12.0          21.6 V EV040G96
     K05V00O  C2005 11 03.26167 00 43 44.65 -01 22 19.2          21.4 V EV040G96
     K05V00O  C2005 11 03.26208 00 43 44.18 -01 22 26.4          20.4 V EV040G96
     K05V00O  C2005 11 03.26250 00 43 43.75 -01 22 33.4          20.3 V EV040G96
     K05V00O  C2005 11 03.26292 00 43 43.35 -01 22 39.9          21.1 V EV040G96
     K05V00O  C2005 11 04.19950 00 23 26.30 -07 25 01.0          20.6 V EV040G96
     K05V00O  C2005 11 04.19992 00 23 25.40 -07 25 15.3          20.6 V EV040G96
     K05V00O  C2005 11 04.20034 00 23 24.50 -07 25 30.4          19.5 V EV040G96
     K05V00O  C2005 11 04.20075 00 23 23.64 -07 25 43.2          20.9 V EV040G96
     K05V00O  C2005 11 04.20626 00 23 11.43 -07 28 55.2          20.1 V EV040G96
     K05V00O  C2005 11 04.20668 00 23 10.60 -07 29 08.6          20.0 V EV040G96
     K05V00O  C2005 11 04.20709 00 23 09.67 -07 29 23.1          20.3 V EV040G96
     K05V00O  C2005 11 04.20751 00 23 08.62 -07 29 39.8          19.9 V EV040G96
     K05V00O  C2005 11 04.23389 00 22 08.90 -07 45 18.9          20.1 V EV040G96
     K05V00O  C2005 11 04.23431 00 22 07.89 -07 45 35.0          20.0 V EV040G96
     K05V00O  C2005 11 04.23472 00 22 06.99 -07 45 49.7          19.6 V EV040G96
     K05V00O  C2005 11 04.23514 00 22 06.09 -07 46 04.1          19.6 V EV040G96
     K05V00O  C2005 11 04.27199 00 20 39.55 -08 08 44.1          20.7 V EV040G96
     K05V00O  C2005 11 04.27242 00 20 38.58 -08 09 00.6          20.1 V EV040G96
     K05V00O  C2005 11 04.27284 00 20 37.82 -08 09 13.1          19.9 V EV040G96
     K05V00O  C2005 11 04.27326 00 20 36.81 -08 09 27.6          20.6 V EV040G96

Observer details:
G96 Mt. Lemmon Survey.  Observer R. Hill.  Measurers E. C. Beshore,
    E. J. Christensen, G. J. Garradd, A. D. Grauer, R. E. Hill, R. A. Kowalski,
    S. M. Larson, R. H. McNaught.  1.5-m reflector + CCD.

Orbital elements:
2005 VO
Epoch 2005 Aug. 18.0 TT = JDT 2453600.5                 MPC
M 328.89591              (2000.0)            P               Q
n   0.26610993     Peri.  251.49959     -0.15324801     -0.98817860
a   2.3938412      Node   207.31670     +0.91010664     -0.13946015
e   0.6581442      Incl.    0.53132     +0.38499473     -0.06367048
P   3.70           H   27.8           G   0.15           U   7
Residuals in seconds of arc
051103 G96  1.0-  0.6-    051104 G96 (2.8-  2.6-)   051104 G96  0.1-  0.3+
051103 G96  0.5-  0.1-    051104 G96 (2.3-  2.3-)   051104 G96  0.8-  0.6-
051103 G96  0.3-  0.6-    051104 G96 (1.9-  2.7-)   051104 G96  0.1-  0.5-
051103 G96  1.0-  0.3-    051104 G96  1.2-  1.2-    051104 G96  0.8+  0.3+
051103 G96  1.5+  1.5+    051104 G96  0.5-  0.1-    051104 G96 (3.5-  3.4-)
051103 G96  0.6+  0.5+    051104 G96  1.1+  1.3+    051104 G96 (2.7-  3.7-)
051103 G96  0.5+  0.0     051104 G96  0.9+  1.2+    051104 G96  0.8+  0.5-
051103 G96  0.8+  0.1-    051104 G96  0.8-  0.7-    051104 G96  0.7+  0.8+

Ephemeris:
2005 VO                  a,e,i = 2.39, 0.66, 1                   q = 0.8183
Date    TT    R. A. (2000) Decl.     Delta      r     Elong.  Phase     V
2005 10 27    01 12.52   +07 00.2    0.0814   1.073   165.8    13.2    23.3
2005 10 28    01 11.23   +06 39.3    0.0731   1.064   164.3    14.6    23.1
2005 10 29    01 09.66   +06 13.3    0.0647   1.055   162.8    16.2    22.8
2005 10 30    01 07.68   +05 40.0    0.0564   1.047   161.1    17.9    22.6
2005 10 31    01 05.09   +04 55.6    0.0482   1.038   159.2    19.8    22.3
2005 11 01    01 01.50   +03 53.4    0.0399   1.029   156.9    22.2    21.9
2005 11 02    00 56.15   +02 19.6    0.0318   1.021   154.0    25.2    21.5
2005 11 03    00 47.26   -00 18.0    0.0237   1.013   149.8    29.5    21.0
2005 11 04    00 29.40   -05 34.0    0.0158   1.004   142.2    37.2    20.3
2005 11 05    23 36.48   -20 05.0    0.00855  0.996   122.4    57.2    19.5
2005 11 06    18 23.33   -49 43.8    0.00567  0.988    55.3   124.4    21.7
2005 11 07    14 46.90   -30 26.7    0.0113   0.980    14.2   165.6    31.5
2005 11 08    14 07.82   -21 59.9    0.0189   0.972    11.9   167.9    34.1
2005 11 09    13 53.04   -18 18.8    0.0269   0.965    15.2   164.4    32.7
2005 11 10    13 45.37   -16 17.7    0.0350   0.957    18.0   161.3    31.9
2005 11 11    13 40.73   -15 01.9    0.0432   0.950    20.3   158.8    31.4
2005 11 12    13 37.66   -14 10.2    0.0515   0.942    22.1   156.7    31.2
2005 11 13    13 35.52   -13 33.0    0.0598   0.935    23.8   154.7    31.0
2005 11 14    13 33.99   -13 05.0    0.0681   0.928    25.3   152.9    30.8
2005 11 15    13 32.87   -12 43.4    0.0764   0.921    26.6   151.3    30.7
2005 11 16    13 32.07   -12 26.5    0.0849   0.915    27.9   149.6    30.6

Timothy B. Spahr             (C) Copyright 2005 MPC           M.P.E.C. 2005-V40

Read MPEC 2005-V39 Read MPEC 2005-V41


Our Web policy. Index to the CBAT/MPC/ICQ pages.


Valid HTML 4.01!